Regional Weather Roundup
Issued by NWS

Home | Current Version | Previous Version | Graphics & Text | Print | Product List | Glossary On
Versions: 1 2 3 4 5 6 7 8 9 10 11 12 13 14 15 16 17 18 19 20 21 22 23 24 25 26 27 28 29 30 31 32 33 34 35 36 37 38 39 40 41 42 43 44 45 46 47 48 49 50
000
ASUS43 KLOT 171508
RWRIL

ILLINOIS REGIONAL WEATHER ROUNDUP
NATIONAL WEATHER SERVICE CHICAGO/ROMEOVILLE IL
900 AM CST TUE JAN 17 2017

NOTE: "FAIR" INDICATES FEW OR NO CLOUDS BELOW 12,000 FEET WITH NO
SIGNIFICANT WEATHER AND/OR OBSTRUCTIONS TO VISIBILITY.

* THESE STATIONS ARE NOT UNDER NWS QUALITY CONTROL. THEY ALSO MAY NOT
  REPORT WEATHER SUCH AS PRECIPITATION OR FOG.

ILZ001-002-007-009-015-016-024-171600-
NORTHWEST ILLINOIS

CITY           SKY/WX    TMP DP  RH WIND       PRES   REMARKS
MOLINE         CLOUDY    35  33  92 W12       29.92R FOG     WCI  27
STERLING*      MIX PCPN  35  34  96 W12       29.90R VSB 1/2 WCI  27
SAVANNA*       CLOUDY    34  34  99 W3        29.90R FOG
$$

ILZ003-004-008-010-011-017-018-171600-
NORTH CENTRAL ILLINOIS

CITY           SKY/WX    TMP DP  RH WIND       PRES   REMARKS
ROCKFORD       FOG       35  34  96 W8        29.88R VSB 1/4 WCI  29
FREEPORT*      FOG       33  33 100 W7        29.89R VSB 1/4 WCI  27
ROCHELLE*      FOG       34  34 100 W8        29.88R VSB 1/4 WCI  27
DE KALB*       FOG       35  35 100 W8        29.87R VSB 1/2 WCI  28
$$

ILZ005-006-012>014-019>023-171600-
NORTHEAST ILLINOIS

CITY           SKY/WX    TMP DP  RH WIND       PRES   REMARKS
CHICAGO-OHARE  CLOUDY    36  36 100 W12       29.83R WCI  28
CHICAGO-MIDWAY CLOUDY    35  35 100 W9        29.84R WCI  28
AURORA         FOG       36  35  96 W8        29.86R VSB 1/4 WCI  30
LANSING*       CLOUDY    38  38 100 W9        29.85R WCI  32
JOLIET*        FOG       37  37 100 W6        29.87R VSB 1/2 WCI  32
WAUKEGAN       FOG       36  36 100 W3        29.82R VSB 1/4
DUPAGE AIRPORT FOG       36  34  92 W7        29.84R VSB 3/4 WCI  30
KANKAKEE*      CLOUDY    40  39  97 W13       29.89R FOG
WHEELING       CLOUDY    37  36  96 W7        29.84R WCI  32
MORRIS*        CLOUDY    36  36  99 W10G17    29.87R WCI  28
ROMEOVILLE*    FOG       35  35 100 W13       29.87R VSB 1/2 WCI  27
NORTHERLY ISL    N/A     38  37  97 W16         N/A  WCI  29
$$

LMZ740>746-171600-
SOUTHERN LAKE MICHIGAN

STATION/POSITION SKY/WX   TEMP    WIND        PRES    VSBY  WAVE
                          AIR SEA DIR/SP/G                  HT/PER
                          (F)     (DEG/KT/KT) (MB)    (MI)  (FT/S)
HARRISON CRIB              38     270/ 13/ 14   N/A
BURNHAM HARBOR             38     260/  8/ 14   N/A
CALUMET HARBOR             38     230/  8/ 14 1009.8R
BURNS HARBOR               39     240/ 12/ 15 1011.2R
$$

ILZ025>027-034>036-040-047-049-050-058-095>099-171600-
WEST-CENTRAL ILLINOIS

CITY           SKY/WX    TMP DP  RH WIND       PRES   REMARKS
QUINCY         CLOUDY    37  35  92 W9        29.98S FOG     WCI  30
GALESBURG*     CLOUDY    34  34 100 W13       29.92R WCI  25
MACOMB*        CLOUDY    35  35 100 W13       29.98R WCI  27
JACKSONVILLE*  CLOUDY    41  39  93 W9        29.97R
PITTSFIELD*    CLOUDY    40  39  95 W13       29.99R
$$

ILZ028>032-037-038-041>044-048-051>054-059>061-171600-
CENTRAL ILLINOIS

CITY           SKY/WX    TMP DP  RH WIND       PRES   REMARKS
PONTIAC        CLOUDY    40  40 100 W8        29.90S FOG
BLOOMINGTON    FOG       40  40 100 W17G24    29.91R VSB 1/4
DECATUR        CLOUDY    42  41  96 W8G20     29.95R
PEORIA         CLOUDY    38  37  97 W10       29.93R WCI  31
LACON*         CLOUDY    37  37 100 W6        29.90R WCI  32
LINCOLN*       CLOUDY    42  42 100 W6        29.94R FOG
SPRINGFIELD    CLOUDY    43  41  93 W12       29.97R FOG
TAYLORVILLE    CLOUDY    41  40  93 W13       29.97R
$$

ILZ033-039-045-046-055>057-062-063-171600-
EAST-CENTRAL ILLINOIS

CITY           SKY/WX    TMP DP  RH WIND       PRES   REMARKS
CHAMPAIGN      CLOUDY    43  40  89 W17       29.93R
RANTOUL*       CLOUDY    44  43  98 W14G20    29.91R FOG
MATTOON        CLOUDY    44  40  85 W13       29.94R
PARIS*         CLOUDY    44  42  93 W15       29.96R
$$

ILZ079-100>102-171600-
SOUTHWEST ILLINOIS

CITY           SKY/WX    TMP DP  RH WIND       PRES   REMARKS
ALTON          CLOUDY    41  37  87 W9        30.01R
BELLEVILLE     CLOUDY    44  42  95 W14       30.00S
CAHOKIA*       CLOUDY    45  37  73 W10       30.01R
SPARTA*        CLOUDY    42  38  84 W7        30.03S
$$

ILZ064>066-069>071-074>076-080>082-084>086-088>090-092>094-171600-
SOUTH-CENTRAL ILLINOIS

CITY           SKY/WX    TMP DP  RH WIND       PRES   REMARKS
CARBONDALE     NOT AVBL
CAIRO*         PTSUNNY   45  40  85 SW8       30.06R
EFFINGHAM*     CLOUDY    44  42  93 SW13      30.00R
MARION         CLOUDY    46  45  93 NW12      30.03R
MT. VERNON     CLOUDY    45  39  79 W8        30.01R
CENTRALIA*     CLOUDY    45  41  86 W9        30.00S
SALEM*         CLOUDY    45  39  81 W12G18    30.00R
METROPOLIS*    CLOUDY    47  42  80 W10       30.04R
$$

ILZ067-068-072-073-078-083-087-091-171600-
SOUTHEAST ILLINOIS

CITY           SKY/WX    TMP DP  RH WIND       PRES   REMARKS
LAWRENCEVILLE  CLOUDY    48  43  82 W13       29.98R
FLORA*         CLOUDY    47  41  81 W12       30.00R
FAIRFIELD*     CLOUDY    45  39  81 W5        30.00R
HARRISBURG*    CLOUDY    47  44  88 W9        30.03R
ROBINSON*      CLOUDY    46  41  85 W12       29.98R
CARMI*         CLOUDY    47  43  84 W13       30.01R
$$

ABBREVIATIONS USED IN REMARKS
   TC - TEMPERATURE IN CELSIUS
  WCI - WIND CHILL INDEX
   HX - HEAT INDEX
  VSB - VISIBILITY
$$





USA.gov is the U.S. government's official web portal to all federal, state and local government web resources and services.